Regional Weather Roundup
Issued by NWS Boston, MA

Home | Current Version | Previous Version | Text Only | Print | Product List | Glossary On
Versions: 1 2 3 4 5 6 7 8 9 10 11 12 13 14 15 16 17 18 19 20 21 22 23 24 25 26 27 28 29 30 31 32 33 34 35 36 37 38 39 40 41 42 43 44 45 46 47 48 49 50
000
ASUS41 KBOX 040110
RWRBOX

REGIONAL WEATHER ROUNDUP
NATIONAL WEATHER SERVICE TAUNTON MA
900 PM EDT MON AUG 03 2015

NOTE:  "FAIR" INDICATES FEW OR NO CLOUDS BELOW 12,000 FEET WITH NO
SIGNIFICANT WEATHER AND/OR OBSTRUCTIONS TO VISIBILITY.  THE FOLLOWING
OBSERVATION LOCATIONS DO NOT REPORT PRESENT WEATHER...PROVINCETOWN...
SMITHFIELD...BLOCK ISLAND...KEENE...AND OXFORD.

MAZALL-040200-
EASTERN MASSACHUSETTS

CITY           SKY/WX    TMP DP  RH WIND       PRES   REMARKS
BOSTON         MOCLDY    77  63  61 S13       29.79R
BEVERLY        PTCLDY    79  59  50 S6        29.78R
LAWRENCE       PTCLDY    80  60  50 S9        29.79R
BEDFORD        PTCLDY    77  62  59 S13       29.77R
BLUE HILL        N/A     75  64  68 S16G23    29.81R
NORWOOD        CLEAR     76  64  66 S7        29.80R
MARSHFIELD     CLEAR     77  68  73 SW10G16   29.83R
PLYMOUTH       CLEAR     76  69  79 SW12      29.83R
TAUNTON        CLEAR     77  69  76 S9G18     29.82R
NEW BEDFORD    CLEAR     75  70  84 SW10      29.82R
$$

MAZALL-040200-
CAPE COD AND THE ISLANDS

CITY           SKY/WX    TMP DP  RH WIND       PRES   REMARKS
FALMOUTH       CLEAR     75  70  83 SW13G20   29.84S
HYANNIS        CLEAR     76  71  85 SW13G22   29.83R
CHATHAM        CLEAR     74  72  93 VRB7G20   29.85R
PROVINCETOWN   CLEAR     73  63  68 SW14G20   29.82S
NANTUCKET      CLEAR     74  71  91 S14       29.85R
MARTHAS VNYRD  CLEAR     73  71  93 SW8       29.84R
$$

MAZALL-040200-
CENTRAL AND WESTERN MASSACHUSETTS

CITY           SKY/WX    TMP DP  RH WIND       PRES   REMARKS
WORCESTER      MOCLDY    74  64  71 S14G22    29.83R
FITCHBURG      MOCLDY    79  64  60 S8        29.79R
ORANGE         MOCLDY    77  64  64 S5        29.78R
SPRINGFIELD    MOCLDY    79  65  61 S10       29.76R
WESTFIELD      PTCLDY    78  65  63 S8        29.77R
NORTH ADAMS    PTCLDY    66  65  96 CALM      29.78S FOG
PITTSFIELD     PTCLDY    73  61  65 SW5       29.79S
$$

RIZALL-040200-
RHODE ISLAND

CITY           SKY/WX    TMP DP  RH WIND       PRES   REMARKS
PROVIDENCE     PTCLDY    76  69  79 SW13      29.82R
NEWPORT        CLEAR     73  69  87 S8        29.82S
BLOCK ISLAND     N/A     75  72  88 SW13      29.83S
SMITHFIELD     PTCLDY    73  68  83 SW5       29.82S
WESTERLY       CLEAR     76  70  82 SW10      29.83R
$$

CTZALL-040200-
CONNECTICUT

CITY           SKY/WX    TMP DP  RH WIND       PRES   REMARKS
BRADLEY INTL   MOCLDY    80  65  59 S10G18    29.77R
HARTFORD       PTCLDY    80  68  66 S12       29.78R
BRIDGEPORT     PTCLDY    79  71  76 S17       29.78R
DANBURY        MOCLDY    77  66  68 S6        29.81R
GROTON         PTCLDY    74  71  91 SW9       29.81R
NEW HAVEN      MOCLDY    77  70  79 S10       29.79R
CHESTER        NOT AVBL
MERIDEN        PTCLDY    79  68  69 S8        29.79R
WILLIMANTIC    MOCLDY    78  68  71 S9G16     29.80R
OXFORD         MOCLDY    75  64  69 SW6       29.83R
$$

MEZ002-015-021-024-NHZ003-005-008-011-012-014-VTZ005-008-040200-
NORTHERN NEW ENGLAND

CITY           SKY/WX    TMP DP  RH WIND       PRES   REMARKS
PORTLAND ME    MOCLDY    73  63  70 CALM      29.76R
BANGOR ME      MOCLDY    70  63  78 S13       29.80R
CONCORD NH     CLOUDY    66  62  87 CALM      29.78R THUNDER
MANCHESTER NH  MOCLDY    81  61  50 SW9G18    29.75R THUNDER
NASHUA NH      MOCLDY    80  63  55 VRB6      29.77R
PORTSMOUTH NH  MOCLDY    78  63  59 S5        29.74R
JAFFREY NH     CLOUDY    77  62  59 S7        29.81R
KEENE NH       MOCLDY    70  63  78 CALM      29.78R
BURLINGTON VT  PTCLDY    76  59  55 N6        29.73R
MT. WASHINGTON MOCLDY    52  46  82 W40         N/A
$$

NYZ052-076-040200-
EASTERN NEW YORK

CITY           SKY/WX    TMP DP  RH WIND       PRES   REMARKS
ALBANY         MOCLDY    72  67  84 VRB3      29.76R THUNDER
NEW YORK CITY  PTCLDY    87  58  37 SW10      29.78R
$$

ANZALL-040200-
MARINE OBSERVATIONS

STATION/POSITION TIME  TEMP    WIND        PRES    VSBY  WAVE
                       AIR SEA DIR/SP/G                  HT/PER
                 (UTC) (F)     (DEG/KT/KT) (MB)    (MI)  (FT/S)
BOSTON BUOY      0050   74 70  210/ 16/ 17 1009.2R         2/ 4
BUZZARDS BAY     0000          210/ 17/ 18 1010.4R
NANTUCKET SOUND  0050   75 72  220/ 14/ 17 1010.2R         2/ 3
MASS BAY-STELLWA 0004   73 68  210/ 10/ 12   N/A    1 7/8  3/ 4
ISLE OF SHOALS   0000   75     200/ 23/ 24 1007.0R
S OF BLOCK IS    0008      75                N/A           4/ 7
$$

......................KEY.........................
  SKY/WX - SKY CONDITION/PRESENT WEATHER
  TMP    - TEMPERATURE IN FAHRENHEIT
  DWPT   - DEWPOINT IN FAHRENHEIT
  RH     - RELATIVE HUMIDITY IN PERCENT
  WIND   - DIRECTION AND SPEED IN MPH
  PRES   - MEAN SEA LEVEL PRESSURE IN INCHES OF HG
  WCI    - WIND CHILL INDEX
  VSB    - VISIBILITY IN MILES
  HX     - HEAT INDEX
  TC     - TEMPERATURE IN CELSIUS
  VRB    - VARIABLE WIND DIRECTION
  N/A    - NOT AVAILABLE



USA.gov is the U.S. government's official web portal to all federal, state and local government web resources and services.